TimeEDT,TemperatureF,Dew PointF,Humidity,Sea Level PressureIn,VisibilityMPH,Wind Direction,Wind SpeedMPH,Gust SpeedMPH,PrecipitationIn,Events,Conditions,WindDirDegrees,DateUTC
12:15 AM,75.2,73.4,94,29.97,10.0,Calm,Calm,-,N/A,,Partly Cloudy,0,2013-07-13 04:15:00
12:35 AM,75.2,73.4,94,29.96,9.0,Calm,Calm,-,N/A,,Partly Cloudy,0,2013-07-13 04:35:00
12:55 AM,75.2,73.4,94,29.96,9.0,Calm,Calm,-,N/A,,Clear,0,2013-07-13 04:55:00
1:15 AM,75.2,73.4,94,29.95,9.0,Calm,Calm,-,N/A,,Clear,0,2013-07-13 05:15:00
1:35 AM,75.2,73.4,94,29.95,10.0,Calm,Calm,-,N/A,,Clear,0,2013-07-13 05:35:00
1:55 AM,75.2,73.4,94,29.94,9.0,Calm,Calm,-,N/A,,Clear,0,2013-07-13 05:55:00
2:15 AM,73.4,71.6,94,29.93,7.0,Calm,Calm,-,N/A,,Clear,0,2013-07-13 06:15:00
2:35 AM,73.4,71.6,94,29.93,7.0,Calm,Calm,-,N/A,,Clear,0,2013-07-13 06:35:00
2:55 AM,73.4,71.6,94,29.94,8.0,Calm,Calm,-,N/A,,Clear,0,2013-07-13 06:55:00
3:15 AM,73.4,71.6,94,29.94,8.0,Calm,Calm,-,N/A,,Clear,0,2013-07-13 07:15:00
3:35 AM,73.4,71.6,94,29.94,7.0,Calm,Calm,-,N/A,,Clear,0,2013-07-13 07:35:00
3:55 AM,73.4,73.4,100,29.94,7.0,Calm,Calm,-,N/A,,Clear,0,2013-07-13 07:55:00
4:15 AM,73.4,73.4,100,29.94,7.0,Calm,Calm,-,N/A,,Clear,0,2013-07-13 08:15:00
4:35 AM,73.4,73.4,100,29.95,7.0,Calm,Calm,-,N/A,,Clear,0,2013-07-13 08:35:00
4:55 AM,73.4,73.4,100,29.95,6.0,Calm,Calm,-,N/A,,Clear,0,2013-07-13 08:55:00
5:15 AM,73.4,71.6,94,29.96,5.0,Calm,Calm,-,N/A,,Clear,0,2013-07-13 09:15:00
5:35 AM,73.4,71.6,94,29.96,5.0,Calm,Calm,-,N/A,,Clear,0,2013-07-13 09:35:00
5:55 AM,73.4,71.6,94,29.96,5.0,Calm,Calm,-,N/A,,Clear,0,2013-07-13 09:55:00
6:15 AM,73.4,71.6,94,29.95,4.0,Calm,Calm,-,N/A,,Clear,0,2013-07-13 10:15:00
6:35 AM,73.4,71.6,94,29.95,5.0,Calm,Calm,-,N/A,,Clear,0,2013-07-13 10:35:00
6:55 AM,73.4,71.6,94,29.95,5.0,Calm,Calm,-,N/A,,Clear,0,2013-07-13 10:55:00
7:15 AM,75.2,73.4,94,29.95,5.0,Calm,Calm,-,N/A,,Clear,0,2013-07-13 11:15:00
7:35 AM,77.0,75.2,94,29.96,6.0,Calm,Calm,-,N/A,,Clear,0,2013-07-13 11:35:00
7:55 AM,78.8,77.0,94,29.96,9.0,Calm,Calm,-,N/A,,Clear,0,2013-07-13 11:55:00
8:15 AM,80.6,78.8,94,29.97,8.0,Calm,Calm,-,N/A,,Clear,0,2013-07-13 12:15:00
8:35 AM,82.4,78.8,89,29.98,10.0,Calm,Calm,-,N/A,,Clear,0,2013-07-13 12:35:00
8:55 AM,84.2,77.0,79,29.98,8.0,Calm,Calm,-,N/A,,Clear,0,2013-07-13 12:55:00
9:15 AM,86.0,75.2,70,29.99,9.0,Calm,Calm,-,N/A,,Clear,0,2013-07-13 13:15:00
9:35 AM,87.8,75.2,66,29.99,10.0,Calm,Calm,-,N/A,,Clear,0,2013-07-13 13:35:00
9:55 AM,87.8,73.4,62,30.00,10.0,Calm,Calm,-,N/A,,Partly Cloudy,0,2013-07-13 13:55:00
10:15 AM,87.8,73.4,62,30.00,8.0,Calm,Calm,-,N/A,,Partly Cloudy,0,2013-07-13 14:15:00
10:35 AM,87.8,71.6,58,30.00,9.0,SSE,5.8,-,N/A,,Clear,160,2013-07-13 14:35:00
10:55 AM,89.6,73.4,59,30.00,10.0,Calm,Calm,-,N/A,,Clear,0,2013-07-13 14:55:00
11:15 AM,89.6,73.4,59,30.00,9.0,Calm,Calm,-,N/A,,Clear,0,2013-07-13 15:15:00
11:35 AM,91.4,73.4,55,30.00,9.0,Calm,Calm,-,N/A,,Partly Cloudy,0,2013-07-13 15:35:00
11:55 AM,89.6,73.4,59,29.99,9.0,Calm,Calm,-,N/A,,Scattered Clouds,0,2013-07-13 15:55:00
12:15 PM,89.6,71.6,55,29.99,9.0,Calm,Calm,-,N/A,,Scattered Clouds,0,2013-07-13 16:15:00
12:35 PM,89.6,71.6,55,29.98,9.0,South,5.8,-,N/A,,Scattered Clouds,180,2013-07-13 16:35:00
12:55 PM,89.6,71.6,55,29.98,9.0,Calm,Calm,-,N/A,,Scattered Clouds,0,2013-07-13 16:55:00
1:15 PM,91.4,71.6,52,29.97,8.0,Calm,Calm,-,N/A,,Scattered Clouds,0,2013-07-13 17:15:00
1:35 PM,91.4,71.6,52,29.97,8.0,SE,4.6,-,N/A,,Scattered Clouds,140,2013-07-13 17:35:00
1:55 PM,93.2,71.6,49,29.96,10.0,ESE,3.5,-,N/A,,Partly Cloudy,120,2013-07-13 17:55:00
2:15 PM,91.4,73.4,55,29.95,9.0,Calm,Calm,-,N/A,,Scattered Clouds,0,2013-07-13 18:15:00
2:35 PM,91.4,71.6,52,29.95,10.0,SE,4.6,-,N/A,,Partly Cloudy,140,2013-07-13 18:35:00
2:55 PM,91.4,75.2,59,29.95,9.0,SE,17.3,20.7,N/A,,Scattered Clouds,130,2013-07-13 18:55:00
3:15 PM,82.4,75.2,79,29.96,-9999.0,SE,5.8,-,N/A,,Mostly Cloudy,130,2013-07-13 19:15:00
3:35 PM,86.0,77.0,74,29.96,10.0,ESE,12.7,-,N/A,,Partly Cloudy,120,2013-07-13 19:35:00
3:55 PM,87.8,75.2,66,29.96,9.0,ESE,12.7,20.7,N/A,,Partly Cloudy,120,2013-07-13 19:55:00
4:15 PM,87.8,73.4,62,29.96,9.0,SSE,10.4,18.4,N/A,,Partly Cloudy,150,2013-07-13 20:15:00
4:35 PM,86.0,73.4,66,29.98,9.0,SSE,11.5,-,N/A,,Scattered Clouds,160,2013-07-13 20:35:00
4:55 PM,82.4,71.6,70,30.00,7.0,SW,15.0,26.5,N/A,,Mostly Cloudy,220,2013-07-13 20:55:00
5:15 PM,75.2,69.8,83,30.01,5.0,SW,13.8,23.0,N/A,,Mostly Cloudy,220,2013-07-13 21:15:00
5:35 PM,73.4,71.6,94,30.00,6.0,Calm,Calm,-,N/A,,Mostly Cloudy,0,2013-07-13 21:35:00
5:55 PM,73.4,71.6,94,30.01,10.0,Calm,Calm,-,N/A,,Partly Cloudy,0,2013-07-13 21:55:00
6:15 PM,75.2,71.6,89,30.01,10.0,Calm,Calm,-,N/A,,Clear,0,2013-07-13 22:15:00
6:35 PM,75.2,71.6,89,30.00,9.0,Calm,Calm,-,N/A,,Clear,0,2013-07-13 22:35:00
6:55 PM,75.2,73.4,94,30.00,10.0,Calm,Calm,-,N/A,,Clear,0,2013-07-13 22:55:00
7:15 PM,75.2,73.4,94,30.00,9.0,Calm,Calm,-,N/A,,Partly Cloudy,0,2013-07-13 23:15:00
7:35 PM,75.2,73.4,94,29.99,8.0,Calm,Calm,-,N/A,,Clear,0,2013-07-13 23:35:00
7:55 PM,75.2,71.6,89,29.99,9.0,Calm,Calm,-,N/A,,Partly Cloudy,0,2013-07-13 23:55:00
8:15 PM,75.2,71.6,89,29.99,8.0,Calm,Calm,-,N/A,,Partly Cloudy,0,2013-07-14 00:15:00
8:35 PM,73.4,71.6,94,29.99,8.0,Calm,Calm,-,N/A,,Partly Cloudy,0,2013-07-14 00:35:00
8:55 PM,73.4,71.6,94,29.99,9.0,Calm,Calm,-,N/A,,Clear,0,2013-07-14 00:55:00
9:15 PM,73.4,71.6,94,30.00,9.0,Calm,Calm,-,N/A,,Clear,0,2013-07-14 01:15:00
9:35 PM,73.4,71.6,94,30.01,10.0,Calm,Calm,-,N/A,,Clear,0,2013-07-14 01:35:00
9:55 PM,73.4,71.6,94,30.01,9.0,Calm,Calm,-,N/A,,Clear,0,2013-07-14 01:55:00
10:15 PM,73.4,71.6,94,30.02,9.0,Calm,Calm,-,N/A,,Clear,0,2013-07-14 02:15:00
10:35 PM,73.4,71.6,94,30.01,10.0,Calm,Calm,-,N/A,,Clear,0,2013-07-14 02:35:00
10:55 PM,73.4,71.6,94,30.02,9.0,Calm,Calm,-,N/A,,Clear,0,2013-07-14 02:55:00
11:15 PM,73.4,71.6,94,30.03,9.0,Calm,Calm,-,N/A,,Clear,0,2013-07-14 03:15:00
11:35 PM,73.4,71.6,94,30.03,8.0,Calm,Calm,-,N/A,,Clear,0,2013-07-14 03:35:00
11:55 PM,73.4,71.6,94,30.03,9.0,Calm,Calm,-,N/A,,Clear,0,2013-07-14 03:55:00